This is the latest recevied weather packets stored in our database for station/object N0HEQ. If no packets are shown the sender has not sent any weather packets the latest 10 day(s).
| Time | Temp. | Humidity | Pressure | Rain* | Wind** | Luminosity | Snow |
|---|---|---|---|---|---|---|---|
| 1777322875 | 10.56° C | 62% | 1014.7 hPa | 0 mm | - | 277 W/m² | - |
| 1777322573 | 10.56° C | 58% | 1014.7 hPa | 0 mm | - | 306 W/m² | - |
| 1777322270 | 11.11° C | 56% | 1014.7 hPa | 0 mm | - | 396 W/m² | - |
| 1777321967 | 10.56° C | 62% | 1014.6 hPa | 0 mm | - | 620 W/m² | - |
| 1777321664 | 11.11° C | 57% | 1014.8 hPa | 0 mm | - | 210 W/m² | - |
| 1777321360 | 10.56° C | 62% | 1014.9 hPa | 0 mm | - | 403 W/m² | - |
| 1777321057 | 11.11° C | 58% | 1015 hPa | 0 mm | - | 609 W/m² | - |
| 1777320755 | 9.44° C | 66% | 1014.9 hPa | 0 mm | - | 696 W/m² | - |
| 1777320452 | 8.89° C | 67% | 1015 hPa | 0 mm | - | 132 W/m² | - |
| 1777320149 | 8.89° C | 67% | 1015.2 hPa | 0 mm | - | 181 W/m² | - |
| 1777319846 | 9.44° C | 68% | 1014.9 hPa | 0 mm | - | 258 W/m² | - |
| 1777319543 | 8.33° C | 68% | 1015.2 hPa | 0 mm | - | 181 W/m² | - |
| 1777319240 | 8.33° C | 72% | 1015 hPa | 0 mm | - | 216 W/m² | - |
| 1777318937 | 7.78° C | 69% | 1015.3 hPa | 0 mm | - | 146 W/m² | - |
| 1777318634 | 7.78° C | 71% | 1015 hPa | 0 mm | - | 194 W/m² | - |
| 1777318329 | 8.33° C | 72% | 1015.4 hPa | 0 mm | - | 238 W/m² | - |
| 1777318026 | 7.78° C | 71% | 1015.5 hPa | 0 mm | - | 203 W/m² | - |
| 1777317724 | 7.78° C | 72% | 1015.4 hPa | 0 mm | - | 178 W/m² | - |
| 1777317421 | 8.33° C | 71% | 1015.3 hPa | 0 mm | - | 204 W/m² | - |
| 1777317116 | 8.89° C | 72% | 1015.6 hPa | 0 mm | - | 431 W/m² | - |
| 1777316814 | 8.89° C | 72% | 1015.4 hPa | 0 mm | - | 307 W/m² | - |
| 1777316510 | 8.89° C | 72% | 1015.6 hPa | 0 mm | - | 426 W/m² | - |
| 1777316207 | 7.78° C | 72% | 1015.6 hPa | 0 mm | - | 430 W/m² | - |
| 1777315905 | 7.78° C | 77% | 1015.7 hPa | 0 mm | - | 417 W/m² | - |
| 1777315603 | 6.67° C | 76% | 1015.7 hPa | 0 mm | - | 370 W/m² | - |
* Rain latest hour (hover to see other rain measurements)
** Current wind speed in m/s (hover to see current wind gust speed)